ESMQ

Details ICAO ESMQ (KLR)
Name Kalmar
Region Sweden
Timezone Europe/Stockholm (UTC+2.0)
Plans Departing 35
Arriving 38
Stats Elevation 17 ft / 5 m (AMSL)
Location 56.685646° 16.283058°
Runways 2
Magnetic Variation 5.125° E
Sunrise 2018-05-27 02:19:56 UTC / 2018-05-27 04:19:56 Local
Sunset 2018-05-27 19:26:59 UTC / 2018-05-27 21:26:59 Local
Advertisement - Login to hide

Runways

ID Width Length Bearing (true) Bearing (mag) Surface Threshold Offset Overrun Length
05 131 ft / 40 m 2,174 ft / 663 m 48.03° 42.90° Asphalt 0 ft / 0 m 640 ft / 195 m
16 148 ft / 45 m 6,715 ft / 2,047 m 152.22° 147.09° Asphalt 0 ft / 0 m 0 ft / 0 m
23 131 ft / 40 m 2,174 ft / 663 m 228.03° 222.90° Asphalt 0 ft / 0 m 0 ft / 0 m
34 148 ft / 45 m 6,715 ft / 2,047 m 332.23° 327.10° Asphalt 0 ft / 0 m 873 ft / 266 m

Approach Navaids

Runway Type Ident Frequency Range Bearing (true) Bearing (mag) Slope Elevation
16 Localiser MQ 108.70 MHz 18 nm / 33 km 152.34° 147.22° - 17 ft / 5 m (AMSL)
16 Glidescope MQ 108.70 MHz 10 nm / 19 km 152.23° 147.10° 3.00° 17 ft / 5 m (AMSL)

Map

Weather


0- 5 10 15 20 25 30 35+ Temperature / ° C

Clouds and Precipitation
Forecast for 2018-05-27 06:00 UTC. Updated 3 hours ago

Ground ~20,000 ft ~40,000 ft Winds

METAR

ESMQ 270820Z 03006KT 360V060 9999 -RA FEW035 SCT050 BKN075 15/13 Q1027

TAF

Not found

Frequencies

Tower 125.45 MHz TWR
Tower 130.80 MHz TWR
Warning: Do not use this data for real-world aviation or navigation. No guarantee of current accuracy is given.